TimeEDT,TemperatureF,Dew PointF,Humidity,Sea Level PressureIn,VisibilityMPH,Wind Direction,Wind SpeedMPH,Gust SpeedMPH,PrecipitationIn,Events,Conditions,WindDirDegrees,DateUTC
12:53 AM,60.1,57.0,90,29.90,7.0,Calm,Calm,-,N/A,,Clear,0,2012-10-06 04:53:00
1:53 AM,60.1,57.9,93,29.90,6.0,Calm,Calm,-,N/A,,Clear,0,2012-10-06 05:53:00
2:31 AM,60.8,57.2,88,29.88,2.0,Calm,Calm,-,N/A,,Clear,0,2012-10-06 06:31:00
2:53 AM,59.0,57.9,96,29.87,2.5,Calm,Calm,-,N/A,,Clear,0,2012-10-06 06:53:00
3:01 AM,59.0,57.2,94,29.87,3.0,Calm,Calm,-,N/A,,Clear,0,2012-10-06 07:01:00
3:13 AM,57.2,55.4,94,29.87,2.0,South,3.5,-,N/A,,Clear,180,2012-10-06 07:13:00
3:23 AM,60.8,57.2,88,29.87,5.0,South,4.6,-,N/A,,Clear,180,2012-10-06 07:23:00
3:53 AM,61.0,57.9,90,29.87,5.0,Calm,Calm,-,N/A,,Clear,0,2012-10-06 07:53:00
4:38 AM,59.0,57.2,94,29.86,3.0,Calm,Calm,-,N/A,,Clear,0,2012-10-06 08:38:00
4:53 AM,57.9,55.9,93,29.86,3.0,Calm,Calm,-,N/A,,Clear,0,2012-10-06 08:53:00
5:53 AM,61.0,59.0,93,29.85,4.0,South,4.6,-,N/A,,Clear,190,2012-10-06 09:53:00
6:53 AM,62.1,59.0,90,29.84,3.0,South,4.6,-,N/A,,Clear,180,2012-10-06 10:53:00
7:53 AM,63.0,59.0,87,29.84,4.0,South,6.9,-,N/A,,Clear,170,2012-10-06 11:53:00
8:53 AM,64.9,60.1,84,29.83,6.0,South,5.8,-,N/A,,Haze,170,2012-10-06 12:53:00
9:53 AM,70.0,60.1,71,29.82,10.0,SSW,4.6,-,N/A,,Clear,200,2012-10-06 13:53:00
10:53 AM,73.0,59.0,61,29.80,10.0,SSW,9.2,18.4,N/A,,Clear,200,2012-10-06 14:53:00
11:53 AM,75.0,57.9,55,29.78,10.0,South,15.0,24.2,N/A,,Clear,190,2012-10-06 15:53:00
12:53 PM,75.9,57.9,54,29.75,10.0,SW,15.0,23.0,N/A,,Clear,220,2012-10-06 16:53:00
1:53 PM,75.9,57.9,54,29.73,10.0,SSW,12.7,24.2,N/A,,Clear,200,2012-10-06 17:53:00
2:53 PM,75.9,59.0,56,29.72,10.0,SSW,8.1,17.3,N/A,,Mostly Cloudy,200,2012-10-06 18:53:00
3:53 PM,75.0,57.9,55,29.73,10.0,WSW,11.5,-,N/A,,Overcast,240,2012-10-06 19:53:00
4:53 PM,66.9,53.1,61,29.77,10.0,NNW,18.4,28.8,N/A,,Overcast,330,2012-10-06 20:53:00
5:09 PM,62.6,50.0,63,29.80,10.0,NNW,13.8,24.2,N/A,,Overcast,330,2012-10-06 21:09:00
5:53 PM,61.0,48.0,62,29.83,10.0,Variable,5.8,-,N/A,,Overcast,0,2012-10-06 21:53:00
6:53 PM,59.0,45.0,60,29.86,10.0,NNW,9.2,-,N/A,,Scattered Clouds,330,2012-10-06 22:53:00
7:53 PM,57.0,45.0,64,29.89,10.0,NNW,4.6,-,N/A,,Clear,330,2012-10-06 23:53:00
8:53 PM,55.9,44.1,64,29.92,10.0,NW,5.8,-,N/A,,Clear,310,2012-10-07 00:53:00
9:53 PM,55.0,42.1,62,29.94,10.0,NW,5.8,-,N/A,,Clear,320,2012-10-07 01:53:00
10:53 PM,55.0,42.1,62,29.96,10.0,WNW,3.5,-,N/A,,Clear,300,2012-10-07 02:53:00